Location: Derby
(52.9213°N, 1.4761°W)
Time: 18:57:23
(UTC+01:00)

Tiros 1 - Pass Details

Date: 23 May 2025
Orbit: 620 x 651 km, 48.4° (Epoch: 13 June)

Event Time Altitude Azimuth Distance (km) Brightness Sun altitude
Rises 19:40:14 0° 257° (WSW) 2,896 11.6 11.0°
Reaches altitude 10° 19:42:35 10° 252° (WSW) 1,993 10.6 10.7°
Maximum altitude 19:47:00 49° 178° (S) 814 7.7 10.0°
Drops below altitude 10° 19:51:26 10° 104° (ESE) 2,010 9.1 9.4°
Sets 19:53:49 0° 99° (E) 2,923 9.9 9.1°
